Погода Кокшетау

Погода Кокшетау : погода сейчас, прогноз погоды и архив. Всё, что Вы хотите узнать о погоде Кокшетау!

Хотите узнать прогноз погоды в Кокчетаве? Тогда Вам сюда: Погода в Кокчетаве

Поиск расширенной информации на нашем сайте:

Другие новости

Новости СМИ2

Главная страница сайта

Новости сайта

03.07.2017

Напоминаем, что на нашем специализированном сайте Метеоцентр.Азия вы можете получить высокодетализированные автоматические прогнозы погоды по пунктам России, СНГ и мира в авиационном формате (включающие направление и скорость ветра, видимость, явления погоды, количество и форму облачности, нижнюю и верхнюю границу облачности).


Погода Кокшетау - сегодня

Время (UTC), дата Ветер
(°,м/с) 
Видим.   Явления Облачность Т
(°С)
Тd
(°С)
f(%) Тe
(°С)
Pmin
(гПа)
dP
(гПа)
Po
(мм)
O2
(г/м3)
Тmin Tmax R s Состояние
почвы
00 17.08.17 тихо ()   н/о    6/6 600 м 
[Sc]
+7.9 +5.5 85 +8  1022.1  0.2  746  291           
03 17.08.17 220 (ЮЗ) 20000 м    8/0 средняя, верхняя 
[Ac trans|Ci fib]
+14.5 +10.5 77 +17  1021.4  746  283           
06 17.08.17 330 (СЗ) 20000 м    8/3 1000 м средняя, верхняя 
[Cu med, cong|Ac trans|Ci fib]
+22.4 +12.6 54 +27  1020.5  -0.1  746  275  +6.3         
09 17.08.17 280 (З) 10 км  гроза, ливневой дождь  10/10 600 м кучево-дожд. 
[Cb cap]
+18.4 +15.2 82 +28  1020.6  -0.3  745  278           
12 17.08.17 320 (СЗ) 20000 м  {гроза, ливн. осадки}  6/5 600 м кучево-дожд., верхняя 
[Cb cap|Ci fib]
+23.2 +7.9 37 +23  1019.6  -0.6  745  275           
15 17.08.17 350 (С) 20000 м    5/4 600 м верхняя 
[Sc diur, vesp|Ci fib]
+18.5 +8.7 53 +19  1020.9  0.9  746  280    +24.9     
18 17.08.17 тихо ()   н/о    5/5 1000 м 
[Sc]
+13.1 +8.5 74 +13  1022  0.5  746  285    +24.9     
21 17.08.17 330 (СЗ) н/о    3/0 средняя 
[Ac trans]
+12.6 +9 79 +13  1022.1  0.1  746  286           
00 18.08.17 300 (СЗ) н/о    4/0 верхняя 
[Ci fib]
+10.1 +8.3 89 +10  1023  0.6  746  289           
03 18.08.17 330 (СЗ) 20000 м    5/0 средняя, верхняя 
[Ac cast|Cc]
+13.7 +9 73 +14  1023.4  0.8  747  285           
06 18.08.17 360 (С) 20000 м    3/3 1000 м 
[Cu hum]
+18.7 +8.5 51 +19  1023.2  0.2  747  280  +9.4         
09 18.08.17 350 (С) 20000 м    6/4 1000 м верхняя 
[Cu med, cong|Ci fib]
+20.7 +2.6 30 +21  1022.4  -0.6  747  279           
12 18.08.17 340 (С) 20000 м    8/8 1000 м средняя 
[Cu med, cong|Ac cuf]
+18.5 +4.6 40 +19  1022.9  0.3  747  281           
15 18.08.17 010 (С) н/о    8/8 1500 м 
[Sc]
+14.7 +5.2 53 +15  1024.1  0.8  748  285    +21.8       
18 18.08.17 тихо ()   н/о    ясно 
+8.3 +5.7 84 +8  1025.2  0.5  748  292    +21.8       
21 18.08.17 310 (СЗ) н/о    ясно 
+6.2 +5.1 93 +6  1025.8  0.3  748  294           
00 19.08.17 тихо ()   н/о    ясно 
+6 +4.9 93 +6  1026.3  0.5  749  294           
03 19.08.17 270 (З) 20000 м    ясно 
+11.3 +8.7 84 +12  1026.7  0.9  749  288           
06 19.08.17 330 (СЗ) 20000 м    8/8 1000 м 
[Cu med, cong]
+18.3 +7.5 49 +19  1025.5  -0.5  749  282  +4         
09 19.08.17 290 (З) 20000 м    8/8 1000 м 
[Cu med, cong]
+20.6 +3.1 31 +21  1024.6  -0.7  748  280           
12 19.08.17 300 (СЗ) 20000 м    6/4 1000 м средняя, верхняя 
[Cu Sc|Ac cuf|Ci fib]
+19.2 +6.4 43 +20  1024.2  -0.5  748  281           
15 19.08.17 330 (СЗ) н/о    8/8 1000 м верхняя 
[Sc|Ci fib]
+16.9 +7.8 55 +18  1024.8  0.4  748  283    +21.9       
18 19.08.17 270 (З) н/о    9/9 600 м 
[Sc]
+15.7 +8.4 62 +17  1024.9  748  284    +21.9       
21 19.08.17 290 (З) н/о    10/10 600 м 
[Sc]
+14.3 +8.6 69 +16  1024.9  -0.1  748  285           
00 20.08.17 280 (З) н/о    10/0 верхняя 
[Cs]
+10.2 +7.5 83 +11  1025.8  0.4  748  289           
Время (UTC), дата Ветер
(°,м/с) 
Видим.   Явления Облачность Т
(°С)
Тd
(°С)
f(%) Тe
(°С)
Pmin
(гПа)
dP
(гПа)
Po
(мм)
O2
(г/м3)
Тmin Tmax R s Состояние
почвы

Для получения пояснительной информации подведите курсор к названию столбца.

ПОГОДА Кокшетау - архив

Всё, что Вы хотите узнать о погоде Кокшетау - удобно и подробно!

Выберите нужную дату (начиная с 1 января 2015* года) и нажмите кнопку "Найти".
Будут отображены архивные сводки погоды по пункту Кокшетау, начиная с указанной даты.


Отображать данные в формате CSV (для использования в таблицах Excel)


Внимание! Наш архив погоды предназначен исключительно для личного некоммерческого использования в познавательных целях. Если Вам необходимы официальные справки о состоянии погоды (для производственных, юридических, коммерческих и т.п. целей), обращайтесь в органы Росгидромета.

*Примечание: данная дата относится к архиву по метеостанциям СССР (Россия, СНГ, Балтия).
Архив по метеостанциям Зарубежной Европы и Азии (кроме Китая) хранится 10 дней, по другим регионам земного шара (Китай, Африка, Америка, Австралия, Океания) - 1 день.

Кокшетау - район местоположения метеостанции


Название, широта, долгота, высота метеостанции:
Кокшетау 53.3°ш. 69.4°д. 229 м над ур. моря [Казахстан]

Дополнительная информация

В oтличие oт бoльшинства пoгoдных сайтoв мы публикуем пoдрoбную метеoинфoрмацию в детальнoм прoфессиoнальнoм фoрмате.

Характеристики температуры и влажнoсти вoздуха измеряются на высoте 2 м в тени вдали oт зданий и деревьев.
Скoрoсть ветра измеряется на высoте 10 м (на урoвне рoста челoвека скoрoсть ветра ниже в 1.5-2 раза). Если метеoстанция нахoдится в гoрoде или в лесу, тo скoрoсть ветра занижена на 2-4 м/с пo сравнению с oткрытым местoм. Скoрoсть ветра над акватoриями крупных рек и oзёр, а также на вершинах хoлмoв на 2-5 м/с выше, чем в oбычных услoвиях.
Атмoсфернoе давление в разных тoчках местнoсти мoжет значительнo oтличаться oт давления на метеoстанции, в зависимoсти oт услoвий рельефа (при пoдъёме на 10 м давление пoнижается примернo на 1 мм рт.ст.).